Time,TemperatureF,DewpointF,PressureIn,WindDirection,WindDirectionDegrees,WindSpeedMPH,WindSpeedGustMPH,Humidity,HourlyPrecipIn,Conditions,Clouds,dailyrainin,SoftwareType,DateUTC
2013-09-06 00:00:00,75.6,61.7,29.98,NNW,333,0.0,1.0,62,0.00,CLR,,0.00,WeatherDisplay:10.37,2013-09-05 22:00:00,
2013-09-06 00:10:00,75.5,61.6,29.98,NNW,333,0.0,0.0,62,0.00,CLR,,0.00,WeatherDisplay:10.37,2013-09-05 22:10:00,
2013-09-06 00:20:00,75.3,60.9,29.98,NNW,333,0.0,1.0,61,0.00,CLR,,0.00,WeatherDisplay:10.37,2013-09-05 22:20:00,
2013-09-06 00:30:00,75.2,60.4,29.97,NNW,333,0.0,1.0,60,0.00,CLR,,0.00,WeatherDisplay:10.37,2013-09-05 22:30:00,
2013-09-06 00:40:00,75.2,58.4,29.97,NNW,333,0.0,1.0,56,0.00,CLR,,0.00,WeatherDisplay:10.37,2013-09-05 22:40:00,
2013-09-06 00:50:00,75.3,59.0,29.97,NNW,333,0.0,1.0,57,0.00,CLR,,0.00,WeatherDisplay:10.37,2013-09-05 22:50:00,
2013-09-06 01:00:00,75.4,59.6,29.97,NNW,333,0.0,1.0,58,0.00,CLR,,0.00,WeatherDisplay:10.37,2013-09-05 23:00:00,
2013-09-06 01:10:00,75.4,59.6,29.97,NNW,333,0.0,1.0,58,0.00,CLR,,0.00,WeatherDisplay:10.37,2013-09-05 23:10:00,
2013-09-06 01:20:00,75.3,59.5,29.97,NNW,333,0.0,2.0,58,0.00,CLR,,0.00,WeatherDisplay:10.37,2013-09-05 23:20:00,
2013-09-06 01:30:00,75.1,61.7,29.97,NNW,333,0.0,3.0,63,0.00,CLR,,0.00,WeatherDisplay:10.37,2013-09-05 23:30:00,
2013-09-06 01:40:00,74.7,62.6,29.97,NNW,333,0.0,3.0,66,0.00,CLR,,0.00,WeatherDisplay:10.37,2013-09-05 23:40:00,
2013-09-06 01:50:00,74.5,62.8,29.96,NNW,333,0.0,1.0,67,0.00,CLR,,0.00,WeatherDisplay:10.37,2013-09-05 23:50:00,
2013-09-06 02:00:00,74.3,62.6,29.96,NNW,333,0.0,1.0,67,0.00,CLR,,0.00,WeatherDisplay:10.37,2013-09-06 00:00:00,
2013-09-06 02:10:00,74.1,62.4,29.96,NNW,333,0.0,1.0,67,0.00,CLR,,0.00,WeatherDisplay:10.37,2013-09-06 00:10:00,
2013-09-06 02:20:00,73.9,62.3,29.96,NNW,333,0.0,1.0,67,0.00,CLR,,0.00,WeatherDisplay:10.37,2013-09-06 00:20:00,
2013-09-06 02:30:00,73.9,61.8,29.95,NNW,333,0.0,2.0,66,0.00,CLR,,0.00,WeatherDisplay:10.37,2013-09-06 00:30:00,
2013-09-06 02:40:00,73.9,61.8,29.95,NNW,333,0.0,2.0,66,0.00,CLR,,0.00,WeatherDisplay:10.37,2013-09-06 00:40:00,
2013-09-06 02:50:00,73.8,61.3,29.95,NNW,333,0.0,2.0,65,0.00,CLR,,0.00,WeatherDisplay:10.37,2013-09-06 00:50:00,
2013-09-06 03:00:00,73.7,61.2,29.95,NNW,333,0.0,0.0,65,0.00,CLR,,0.00,WeatherDisplay:10.37,2013-09-06 01:00:00,
2013-09-06 03:10:00,73.4,60.9,29.94,NNW,333,0.0,0.0,65,0.00,CLR,,0.00,WeatherDisplay:10.37,2013-09-06 01:10:00,
2013-09-06 03:20:00,73.3,61.3,29.94,NNW,333,0.0,3.0,66,0.00,CLR,,0.00,WeatherDisplay:10.37,2013-09-06 01:20:00,
2013-09-06 03:30:00,73.3,61.3,29.94,NNW,333,1.0,2.0,66,0.00,CLR,,0.00,WeatherDisplay:10.37,2013-09-06 01:30:00,
2013-09-06 03:40:00,73.3,60.4,29.94,NNW,333,0.0,2.0,64,0.00,CLR,,0.00,WeatherDisplay:10.37,2013-09-06 01:40:00,
2013-09-06 03:50:00,73.2,59.8,29.93,NNW,333,0.0,1.0,63,0.00,CLR,,0.00,WeatherDisplay:10.37,2013-09-06 01:50:00,
2013-09-06 04:00:00,73.2,58.0,29.93,NNW,333,0.0,3.0,59,0.00,CLR,,0.00,WeatherDisplay:10.37,2013-09-06 02:00:00,
2013-09-06 04:20:00,73.3,57.1,29.93,NNW,333,0.0,1.0,57,0.00,CLR,,0.00,WeatherDisplay:10.37,2013-09-06 02:20:00,
2013-09-06 04:30:00,73.3,57.6,29.93,NNW,333,0.0,1.0,58,0.00,CLR,,0.00,WeatherDisplay:10.37,2013-09-06 02:30:00,
2013-09-06 04:40:00,73.2,58.0,29.93,NNW,333,0.0,0.0,59,0.00,CLR,,0.00,WeatherDisplay:10.37,2013-09-06 02:40:00,
2013-09-06 04:50:00,73.2,58.5,29.93,NNW,333,0.0,0.0,60,0.00,CLR,,0.00,WeatherDisplay:10.37,2013-09-06 02:50:00,
2013-09-06 05:00:00,72.9,58.2,29.93,NNW,333,0.0,0.0,60,0.00,CLR,,0.00,WeatherDisplay:10.37,2013-09-06 03:00:00,
2013-09-06 05:10:00,72.7,58.9,29.93,NNW,333,0.0,0.0,62,0.00,CLR,,0.00,WeatherDisplay:10.37,2013-09-06 03:10:00,
2013-09-06 05:20:00,72.4,58.7,29.93,NNW,333,0.0,0.0,62,0.00,CLR,,0.00,WeatherDisplay:10.37,2013-09-06 03:20:00,
2013-09-06 05:30:00,72.5,58.7,29.94,NNW,333,0.0,1.0,62,0.00,CLR,,0.00,WeatherDisplay:10.37,2013-09-06 03:30:00,
2013-09-06 05:40:00,72.4,58.2,29.94,NNW,333,0.0,2.0,61,0.00,CLR,,0.00,WeatherDisplay:10.37,2013-09-06 03:40:00,
2013-09-06 05:50:00,72.3,58.1,29.94,NNW,333,0.0,1.0,61,0.00,CLR,,0.00,WeatherDisplay:10.37,2013-09-06 03:50:00,
2013-09-06 06:00:00,72.2,58.9,29.93,NNW,333,0.0,0.0,63,0.00,CLR,,0.00,WeatherDisplay:10.37,2013-09-06 04:00:00,
2013-09-06 06:10:00,72.1,58.4,29.94,NNW,333,0.0,1.0,62,0.00,CLR,,0.00,WeatherDisplay:10.37,2013-09-06 04:10:00,
2013-09-06 06:20:00,72.1,58.8,29.94,NNW,333,0.0,1.0,63,0.00,CLR,,0.00,WeatherDisplay:10.37,2013-09-06 04:20:00,
2013-09-06 06:30:00,72.1,59.2,29.94,NNW,333,0.0,2.0,64,0.00,CLR,,0.00,WeatherDisplay:10.37,2013-09-06 04:30:00,
2013-09-06 06:40:00,72.0,58.3,29.94,NNW,333,0.0,2.0,62,0.00,CLR,,0.00,WeatherDisplay:10.37,2013-09-06 04:40:00,
2013-09-06 06:50:00,72.1,58.8,29.94,NNW,333,0.0,2.0,63,0.00,CLR,,0.00,WeatherDisplay:10.37,2013-09-06 04:50:00,
2013-09-06 07:00:00,72.2,59.3,29.94,NNW,333,0.0,1.0,64,0.00,CLR,,0.00,WeatherDisplay:10.37,2013-09-06 05:00:00,
2013-09-06 07:10:00,72.5,60.0,29.94,NNW,333,0.0,0.0,65,0.00,CLR,,0.00,WeatherDisplay:10.37,2013-09-06 05:10:00,
2013-09-06 07:20:00,72.9,61.3,29.95,NNW,333,0.0,1.0,67,0.00,CLR,,0.00,WeatherDisplay:10.37,2013-09-06 05:20:00,
2013-09-06 07:30:00,73.6,62.8,29.95,NNW,333,0.0,0.0,69,0.00,CLR,,0.00,WeatherDisplay:10.37,2013-09-06 05:30:00,
2013-09-06 07:40:00,74.2,63.0,29.95,NNW,333,0.0,0.0,68,0.00,CLR,,0.00,WeatherDisplay:10.37,2013-09-06 05:40:00,
2013-09-06 07:50:00,75.3,62.7,29.95,NNW,333,0.0,1.0,65,0.00,CLR,,0.00,WeatherDisplay:10.37,2013-09-06 05:50:00,
2013-09-06 08:00:00,75.6,62.6,29.95,NNW,333,0.0,3.0,64,0.00,CLR,,0.00,WeatherDisplay:10.37,2013-09-06 06:00:00,
2013-09-06 08:10:00,74.9,62.3,29.95,NNW,333,0.0,3.0,65,0.00,CLR,,0.00,WeatherDisplay:10.37,2013-09-06 06:10:00,
2013-09-06 08:20:00,75.2,61.7,29.95,NNW,333,0.0,2.0,63,0.00,CLR,,0.00,WeatherDisplay:10.37,2013-09-06 06:20:00,
2013-09-06 08:30:00,76.0,62.0,29.95,NNW,333,0.0,1.0,62,0.00,CLR,,0.00,WeatherDisplay:10.37,2013-09-06 06:30:00,
2013-09-06 08:40:00,76.9,62.4,29.95,NNW,333,0.0,1.0,61,0.00,CLR,,0.00,WeatherDisplay:10.37,2013-09-06 06:40:00,
2013-09-06 08:50:00,77.2,62.7,29.95,NNW,333,0.0,1.0,61,0.00,CLR,,0.00,WeatherDisplay:10.37,2013-09-06 06:50:00,
2013-09-06 09:00:00,78.1,63.6,29.95,NNW,333,0.0,2.0,61,0.00,CLR,,0.00,WeatherDisplay:10.37,2013-09-06 07:00:00,
2013-09-06 09:10:00,78.2,64.1,29.95,SSE,156,0.0,4.0,62,0.00,CLR,,0.00,WeatherDisplay:10.37,2013-09-06 07:10:00,
2013-09-06 09:20:00,78.9,63.9,29.96,SE,137,1.0,3.0,60,0.00,CLR,,0.00,WeatherDisplay:10.37,2013-09-06 07:20:00,
2013-09-06 09:30:00,78.8,63.2,29.96,NE,47,0.0,4.0,59,0.00,CLR,,0.00,WeatherDisplay:10.37,2013-09-06 07:30:00,
2013-09-06 09:40:00,79.3,63.7,29.96,East,98,1.0,3.0,59,0.00,CLR,,0.00,WeatherDisplay:10.37,2013-09-06 07:40:00,
2013-09-06 09:50:00,79.5,63.9,29.96,East,100,0.0,2.0,59,0.00,CLR,,0.00,WeatherDisplay:10.37,2013-09-06 07:50:00,
2013-09-06 10:00:00,79.6,64.0,29.96,East,95,1.0,3.0,59,0.00,CLR,,0.00,WeatherDisplay:10.37,2013-09-06 08:00:00,
2013-09-06 10:10:00,80.0,64.4,29.95,East,90,0.0,3.0,59,0.00,CLR,,0.00,WeatherDisplay:10.37,2013-09-06 08:10:00,
2013-09-06 10:20:00,80.8,64.1,29.95,ENE,62,1.0,3.0,57,0.00,CLR,,0.00,WeatherDisplay:10.37,2013-09-06 08:20:00,
2013-09-06 10:30:00,80.8,64.1,29.95,NNE,12,1.0,4.0,57,0.00,CLR,,0.00,WeatherDisplay:10.37,2013-09-06 08:30:00,
2013-09-06 10:40:00,80.8,63.6,29.95,NE,45,1.0,3.0,56,0.00,CLR,,0.00,WeatherDisplay:10.37,2013-09-06 08:40:00,
2013-09-06 10:50:00,81.2,64.0,29.95,ESE,111,1.0,4.0,56,0.00,CLR,,0.00,WeatherDisplay:10.37,2013-09-06 08:50:00,
2013-09-06 11:00:00,81.8,63.5,29.95,East,84,0.0,2.0,54,0.00,CLR,,0.00,WeatherDisplay:10.37,2013-09-06 09:00:00,
2013-09-06 11:10:00,81.1,62.9,29.95,SE,131,2.0,4.0,54,0.00,CLR,,0.00,WeatherDisplay:10.37,2013-09-06 09:10:00,
2013-09-06 11:20:00,81.4,62.1,29.95,South,171,2.0,5.0,52,0.00,CLR,,0.00,WeatherDisplay:10.37,2013-09-06 09:20:00,
2013-09-06 11:30:00,81.9,62.0,29.95,SSE,156,0.0,5.0,51,0.00,CLR,,0.00,WeatherDisplay:10.37,2013-09-06 09:30:00,
2013-09-06 11:40:00,82.4,61.3,29.95,SSE,159,1.0,2.0,49,0.00,CLR,,0.00,WeatherDisplay:10.37,2013-09-06 09:40:00,
2013-09-06 11:50:00,82.2,61.7,29.95,SSE,153,1.0,5.0,50,0.00,CLR,,0.00,WeatherDisplay:10.37,2013-09-06 09:50:00,
2013-09-06 12:00:00,82.8,62.9,29.95,SE,140,0.0,2.0,51,0.00,CLR,,0.00,WeatherDisplay:10.37,2013-09-06 10:00:00,
2013-09-06 12:10:00,83.3,62.2,29.94,South,176,0.0,2.0,49,0.00,CLR,,0.00,WeatherDisplay:10.37,2013-09-06 10:10:00,
2013-09-06 12:20:00,83.7,62.5,29.94,South,179,2.0,6.0,49,0.00,CLR,,0.00,WeatherDisplay:10.37,2013-09-06 10:20:00,
2013-09-06 12:30:00,84.0,62.2,29.94,SSE,166,0.0,4.0,48,0.00,CLR,,0.00,WeatherDisplay:10.37,2013-09-06 10:30:00,
2013-09-06 12:40:00,84.6,62.1,29.94,SE,142,0.0,5.0,47,0.00,CLR,,0.00,WeatherDisplay:10.37,2013-09-06 10:40:00,
2013-09-06 12:50:00,84.8,62.3,29.93,SSE,167,1.0,4.0,47,0.00,CLR,,0.00,WeatherDisplay:10.37,2013-09-06 10:50:00,
2013-09-06 13:00:00,85.2,63.3,29.94,SSE,151,1.0,5.0,48,0.00,CLR,,0.00,WeatherDisplay:10.37,2013-09-06 11:00:00,
2013-09-06 13:10:00,84.5,62.1,29.94,South,177,1.0,6.0,47,0.00,CLR,,0.00,WeatherDisplay:10.37,2013-09-06 11:10:00,
2013-09-06 13:20:00,83.6,63.0,29.94,South,177,3.0,7.0,50,0.00,CLR,,0.00,WeatherDisplay:10.37,2013-09-06 11:20:00,
2013-09-06 13:30:00,82.8,64.5,29.94,South,187,1.0,6.0,54,0.00,CLR,,0.00,WeatherDisplay:10.37,2013-09-06 11:30:00,
2013-09-06 13:40:00,82.5,64.7,29.94,SSW,206,1.0,7.0,55,0.00,CLR,,0.00,WeatherDisplay:10.37,2013-09-06 11:40:00,
2013-09-06 13:50:00,82.7,65.4,29.94,SW,232,1.0,7.0,56,0.00,CLR,,0.00,WeatherDisplay:10.37,2013-09-06 11:50:00,
2013-09-06 14:00:00,82.6,64.8,29.94,SW,225,1.0,8.0,55,0.00,CLR,,0.00,WeatherDisplay:10.37,2013-09-06 12:00:00,
2013-09-06 14:10:00,83.2,65.9,29.94,SSW,209,3.0,6.0,56,0.00,CLR,,0.00,WeatherDisplay:10.37,2013-09-06 12:10:00,
2013-09-06 14:20:00,83.6,65.7,29.94,South,182,2.0,6.0,55,0.00,CLR,,0.00,WeatherDisplay:10.37,2013-09-06 12:20:00,
2013-09-06 14:30:00,83.9,65.5,29.93,SSW,194,2.0,7.0,54,0.00,CLR,,0.00,WeatherDisplay:10.37,2013-09-06 12:30:00,
2013-09-06 14:40:00,83.5,65.1,29.93,SSW,193,1.0,8.0,54,0.00,CLR,,0.00,WeatherDisplay:10.37,2013-09-06 12:40:00,
2013-09-06 14:50:00,83.7,65.3,29.93,South,190,3.0,8.0,54,0.00,CLR,,0.00,WeatherDisplay:10.37,2013-09-06 12:50:00,
2013-09-06 15:00:00,83.4,65.0,29.93,SW,214,5.0,8.0,54,0.00,CLR,,0.00,WeatherDisplay:10.37,2013-09-06 13:00:00,
2013-09-06 15:10:00,83.9,65.5,29.93,SW,222,2.0,9.0,54,0.00,CLR,,0.00,WeatherDisplay:10.37,2013-09-06 13:10:00,
2013-09-06 15:20:00,83.9,64.9,29.93,SW,221,5.0,8.0,53,0.00,CLR,,0.00,WeatherDisplay:10.37,2013-09-06 13:20:00,
2013-09-06 15:30:00,83.8,65.4,29.93,SW,216,3.0,8.0,54,0.00,CLR,,0.00,WeatherDisplay:10.37,2013-09-06 13:30:00,
2013-09-06 15:40:00,83.6,66.2,29.93,SSW,204,5.0,10.0,56,0.00,CLR,,0.00,WeatherDisplay:10.37,2013-09-06 13:40:00,
2013-09-06 15:50:00,83.5,67.2,29.92,SW,218,2.0,9.0,58,0.00,CLR,,0.00,WeatherDisplay:10.37,2013-09-06 13:50:00,
2013-09-06 16:00:00,83.4,65.5,29.92,SSW,211,2.0,8.0,55,0.00,CLR,,0.00,WeatherDisplay:10.37,2013-09-06 14:00:00,
2013-09-06 16:10:00,83.3,59.7,29.92,SSW,194,5.0,10.0,45,0.00,CLR,,0.00,WeatherDisplay:10.37,2013-09-06 14:10:00,
2013-09-06 16:20:00,84.0,55.6,29.92,SW,234,3.0,9.0,38,0.00,CLR,,0.00,WeatherDisplay:10.37,2013-09-06 14:20:00,
2013-09-06 16:30:00,84.2,58.6,29.92,SW,226,2.0,9.0,42,0.00,CLR,,0.00,WeatherDisplay:10.37,2013-09-06 14:30:00,
2013-09-06 16:40:00,84.7,62.2,29.92,SW,215,1.0,8.0,47,0.00,CLR,,0.00,WeatherDisplay:10.37,2013-09-06 14:40:00,
2013-09-06 16:50:00,84.3,61.3,29.92,SSW,204,1.0,10.0,46,0.00,CLR,,0.00,WeatherDisplay:10.37,2013-09-06 14:50:00,
2013-09-06 17:00:00,84.1,59.2,29.92,SSW,213,2.0,12.0,43,0.00,CLR,,0.00,WeatherDisplay:10.37,2013-09-06 15:00:00,
2013-09-06 17:10:00,84.7,59.7,29.92,SSW,203,2.0,7.0,43,0.00,CLR,,0.00,WeatherDisplay:10.37,2013-09-06 15:10:00,
2013-09-06 17:20:00,84.0,59.7,29.92,SW,217,3.0,9.0,44,0.00,CLR,,0.00,WeatherDisplay:10.37,2013-09-06 15:20:00,
2013-09-06 17:30:00,83.4,59.2,29.92,WSW,252,0.0,9.0,44,0.00,CLR,,0.00,WeatherDisplay:10.37,2013-09-06 15:30:00,
2013-09-06 17:40:00,82.7,57.3,29.93,West,261,1.0,7.0,42,0.00,CLR,,0.00,WeatherDisplay:10.37,2013-09-06 15:40:00,
2013-09-06 17:50:00,82.9,60.0,29.93,WSW,250,5.0,8.0,46,0.00,CLR,,0.00,WeatherDisplay:10.37,2013-09-06 15:50:00,
2013-09-06 18:00:00,82.2,60.0,29.93,SW,224,1.0,6.0,47,0.00,CLR,,0.00,WeatherDisplay:10.37,2013-09-06 16:00:00,
2013-09-06 18:10:00,82.2,60.0,29.94,SSW,206,2.0,7.0,47,0.00,CLR,,0.00,WeatherDisplay:10.37,2013-09-06 16:10:00,
2013-09-06 18:20:00,81.7,60.7,29.94,SSW,211,2.0,6.0,49,0.00,CLR,,0.00,WeatherDisplay:10.37,2013-09-06 16:20:00,
2013-09-06 18:30:00,81.2,61.3,29.94,SW,229,1.0,7.0,51,0.00,CLR,,0.00,WeatherDisplay:10.37,2013-09-06 16:30:00,
2013-09-06 18:40:00,80.5,58.4,29.94,SW,214,0.0,7.0,47,0.00,CLR,,0.00,WeatherDisplay:10.37,2013-09-06 16:40:00,
2013-09-06 18:50:00,80.1,58.0,29.94,WSW,237,1.0,7.0,47,0.00,CLR,,0.00,WeatherDisplay:10.37,2013-09-06 16:50:00,
2013-09-06 19:00:00,79.3,59.6,29.94,WSW,248,3.0,8.0,51,0.00,CLR,,0.00,WeatherDisplay:10.37,2013-09-06 17:00:00,
2013-09-06 19:10:00,79.0,59.3,29.94,WSW,243,0.0,5.0,51,0.00,CLR,,0.00,WeatherDisplay:10.37,2013-09-06 17:10:00,
2013-09-06 19:20:00,78.9,58.1,29.94,SW,231,2.0,8.0,49,0.00,CLR,,0.00,WeatherDisplay:10.37,2013-09-06 17:20:00,
2013-09-06 19:30:00,78.6,58.4,29.94,WSW,240,0.0,2.0,50,0.00,CLR,,0.00,WeatherDisplay:10.37,2013-09-06 17:30:00,
2013-09-06 19:40:00,78.6,57.8,29.95,SW,219,0.0,5.0,49,0.00,CLR,,0.00,WeatherDisplay:10.37,2013-09-06 17:40:00,
2013-09-06 19:50:00,78.5,58.3,29.95,SSW,202,1.0,3.0,50,0.00,CLR,,0.00,WeatherDisplay:10.37,2013-09-06 17:50:00,
2013-09-06 20:00:00,78.0,60.0,29.96,SSW,204,1.0,5.0,54,0.00,CLR,,0.00,WeatherDisplay:10.37,2013-09-06 18:00:00,
2013-09-06 20:10:00,77.8,58.8,29.97,NW,315,0.0,3.0,52,0.00,CLR,,0.00,WeatherDisplay:10.37,2013-09-06 18:10:00,
2013-09-06 20:20:00,77.8,59.8,29.97,NW,317,1.0,4.0,54,0.00,CLR,,0.00,WeatherDisplay:10.37,2013-09-06 18:20:00,
2013-09-06 20:30:00,78.0,60.0,29.98,West,281,0.0,5.0,54,0.00,CLR,,0.00,WeatherDisplay:10.37,2013-09-06 18:30:00,
2013-09-06 20:40:00,77.8,59.8,29.98,SSW,209,0.0,5.0,54,0.00,CLR,,0.00,WeatherDisplay:10.37,2013-09-06 18:40:00,
2013-09-06 20:50:00,77.8,60.3,29.98,NNW,340,1.0,3.0,55,0.00,CLR,,0.00,WeatherDisplay:10.37,2013-09-06 18:50:00,
2013-09-06 21:00:00,77.4,61.5,29.98,WNW,303,0.0,3.0,58,0.00,CLR,,0.00,WeatherDisplay:10.37,2013-09-06 19:00:00,
2013-09-06 21:10:00,77.3,63.7,29.99,NW,311,0.0,3.0,63,0.00,CLR,,0.00,WeatherDisplay:10.37,2013-09-06 19:10:00,
2013-09-06 21:20:00,76.6,64.8,29.99,West,279,0.0,6.0,67,0.00,CLR,,0.00,WeatherDisplay:10.37,2013-09-06 19:20:00,
2013-09-06 21:30:00,76.4,64.6,29.99,West,275,0.0,2.0,67,0.00,CLR,,0.00,WeatherDisplay:10.37,2013-09-06 19:30:00,
2013-09-06 21:40:00,76.4,65.1,29.99,West,265,0.0,1.0,68,0.00,CLR,,0.00,WeatherDisplay:10.37,2013-09-06 19:40:00,
2013-09-06 21:50:00,76.5,65.1,29.99,West,264,0.0,3.0,68,0.00,CLR,,0.00,WeatherDisplay:10.37,2013-09-06 19:50:00,
2013-09-06 22:00:00,76.4,66.3,29.99,WSW,250,0.0,3.0,71,0.00,CLR,,0.00,WeatherDisplay:10.37,2013-09-06 20:00:00,
2013-09-06 22:10:00,76.2,66.1,29.99,WSW,250,0.0,1.0,71,0.00,CLR,,0.00,WeatherDisplay:10.37,2013-09-06 20:10:00,
2013-09-06 22:20:00,76.1,66.4,29.99,WSW,250,0.0,1.0,72,0.00,CLR,,0.00,WeatherDisplay:10.37,2013-09-06 20:20:00,
2013-09-06 22:30:00,75.9,65.8,29.99,WSW,250,0.0,3.0,71,0.00,CLR,,0.00,WeatherDisplay:10.37,2013-09-06 20:30:00,
2013-09-06 22:40:00,75.8,66.1,29.99,SW,221,0.0,5.0,72,0.00,CLR,,0.00,WeatherDisplay:10.37,2013-09-06 20:40:00,
2013-09-06 22:50:00,75.8,66.5,29.99,SW,217,0.0,1.0,73,0.00,CLR,,0.00,WeatherDisplay:10.37,2013-09-06 20:50:00,
2013-09-06 23:00:00,75.7,66.4,29.99,SW,217,0.0,1.0,73,0.00,CLR,,0.00,WeatherDisplay:10.37,2013-09-06 21:00:00,
2013-09-06 23:10:00,75.6,66.7,29.99,SW,217,0.0,1.0,74,0.00,CLR,,0.00,WeatherDisplay:10.37,2013-09-06 21:10:00,
2013-09-06 23:20:00,75.5,67.0,29.99,SW,217,0.0,1.0,75,0.00,CLR,,0.00,WeatherDisplay:10.37,2013-09-06 21:20:00,
2013-09-06 23:30:00,75.5,67.8,29.99,SW,217,0.0,2.0,77,0.00,CLR,,0.00,WeatherDisplay:10.37,2013-09-06 21:30:00,
2013-09-06 23:40:00,75.4,68.4,29.99,SW,217,0.0,1.0,79,0.00,CLR,,0.00,WeatherDisplay:10.37,2013-09-06 21:40:00,
2013-09-06 23:50:00,75.2,68.6,29.99,SW,217,0.0,1.0,80,0.00,CLR,,0.00,WeatherDisplay:10.37,2013-09-06 21:50:00,